SCP
5 5 5 4 3 3 3 4 4 3 3 2 2 1 1 1 0 0 0 0 0 0 0 0 0 0 0 0 0 0 0 0 0 0 0 0 0 0 0 0 0 0 0
6 6 5 4 4 4 4 5 4 4 3 3 2 1 1 0 0 0 0 0 0 0 0 0 0 0 0 0 0 0 0 0 0 0 0 0 0 0 0 0 0 0 0
7 5 4 4 5 5 5 5 5 4 3 2 2 1 1 0 0 0 0 0 0 0 0 0 0 0 0 0 0 0 0 0 0 0 0 0 0 0 0 0 0 0 0
5 4 4 4 4 4 5 5 5 4 3 2 1 1 1 0 0 0 0 0 0 0 0 0 0 0 0 0 0 0 0 0 0 0 0 0 0 0 0 0 0 0 0
5 4 4 4 4 4 4 4 4 3 2 1 1 1 0 0 0 0 0 0 0 0 0 0 0 0 0 0 0 0 0 0 0 0 0 0 0 0 0 0 0 0 0
5 4 4 3 3 3 3 3 2 2 1 1 0 0 0 0 0 0 0 0 0 0 0 0 0 0 0 0 0 0 0 0 0 0 0 0 0 0 0 0 0 0 0
5 4 3 2 2 1 1 1 1 1 0 0 0 0 0 0 0 0 0 0 0 0 0 0 0 0 0 0 0 0 0 0 0 0 0 0 0 0 0 0 0 0 0
4 3 2 1 1 1 0 0 0 0 0 0 0 0 0 0 0 0 0 0 0 0 0 0 0 0 0 0 0 0 0 0 0 0 0 0 0 0 0 0 0 0 0
2 1 1 0 0 0 0 0 0 0 0 0 0 0 0 0 0 0 0 0 0 0 0 0 0 0 0 0 0 0 0 0 0 0 0 0 0 0 0 0 0 0 0
2 1 0 0 0 0 0 0 0 0 0 0 0 0 0 0 0 0 0 0 0 0 0 0 0 0 0 0 0 0 0 0 0 0 0 0 0 0 0 0 0 0 0
1 1 0 0 0 0 0 0 0 0 0 0 0 0 0 0 0 0 0 0 0 0 0 0 0 0 0 0 0 0 0 0 0 0 0 0 0 0 0 0 0 0 0
1 1 0 0 0 0 0 0 0 0 0 0 0 0 0 0 0 0 0 0 0 0 0 0 0 0 0 0 0 0 0 0 0 0 0 0 0 0 0 0 0 0 0
1 1 0 0 0 0 0 0 0 0 0 0 0 0 0 0 0 0 0 0 0 0 0 0 0 0 0 0 0 0 0 0 0 0 0 0 0 0 0 0 0 0 0
1 0 0 0 0 0 0 0 0 0 0 0 0 0 0 0 0 0 0 0 0 0 0 0 0 0 0 0 0 0 0 0 0 0 0 0 0 0 0 0 0 0 0
1 0 0 0 0 0 0 0 0 0 0 0 0 0 0 0 0 0 0 0 0 0 0 0 0 0 0 0 0 0 0 0 0 0 0 0 0 0 0 0 0 0 0
0 0 0 0 0 0 0 0 0 0 0 0 0 0 0 0 0 0 0 0 0 0 0 0 0 0 0 0 0 0 0 0 0 0 0 0 0 0 0 0 0 0 0
0 0 0 0 0 0 0 0 0 0 0 0 0 0 0 0 0 0 0 0 0 0 0 0 0 0 0 0 0 0 0 0 0 0 0 0 0 0 0 0 0 0 0
0 0 0 0 0 0 0 0 0 0 0 0 0 0 0 0 0 0 0 0 0 0 0 0 0 0 0 0 0 0 0 0 0 0 0 0 0 0 0 0 0 0 0
0 0 0 0 0 0 0 0 0 0 0 0 0 0 0 0 0 0 0 0 0 0 0 0 0 0 0 0 0 0 0 0 0 0 0 0 0 0 0 0 0 0 0
0 0 0 0 0 0 0 0 0 0 0 0 0 0 0 0 0 0 0 0 0 0 0 0 0 0 0 0 0 0 0 0 0 0 0 0 0 0 0 0 0 0 0
0 0 0 0 0 0 0 0 0 0 0 0 0 0 0 0 0 0 0 0 0 0 0 0 0 0 0 0 0 0 0 0 0 0 0 0 0 0 0 0 0 0 0
0 0 0 0 0 0 0 0 0 0 0 0 0 0 0 0 0 0 0 0 0 0 0 0 0 0 0 0 0 0 0 0 0 0 0 0 0 0 0 0 0 0 0
0 0 0 0 0 0 0 0 0 0 0 0 0 0 0 0 0 0 0 0 0 0 0 0 0 0 0 0 0 0 0 0 0 0 0 0 0 0 0 0 0 0 0
0 0 0 0 0 0 0 0 0 0 0 0 0 0 0 0 0 0 0 0 0 0 0 0 0 0 0 0 0 0 0 0 0 0 0 0 0 0 0 0 0 0 0
0 0 0 0 0 0 0 0 0 0 0 0 0 0 0 0 0 0 0 0 0 0 0 0 0 0 0 0 0 0 0 0 0 0 0 0 0 0 0 0 0 0 0
0 0 0 0 0 0 0 0 0 0 0 0 0 0 0 0 0 0 0 0 0 0 0 0 0 0 0 0 0 0 0 0 0 0 0 0 0 0 0 0 0 0 0
Wind_Speed
13 11 10 9 9 9 9 9 10 10 8 8 8 7 7 7 7 8 9 8 8 7 6 5 5 4 4 4 4 4 5 6 5 8 10 10 11 11 8 8 8 10 10
14 12 10 9 9 9 10 10 11 10 8 7 7 7 8 8 8 7 7 7 7 6 5 5 3 3 2 2 4 5 7 7 5 7 10 11 10 8 6 5 7 10 10
16 14 12 11 11 11 10 9 11 10 10 11 9 9 9 7 6 6 5 5 5 5 4 3 3 3 5 4 5 6 6 7 7 5 7 9 9 10 7 8 8 9 10
17 15 14 13 12 12 11 12 12 12 11 11 10 10 8 7 5 4 4 3 3 3 3 3 4 4 5 4 5 5 6 5 6 5 4 6 9 9 9 8 9 10 11
17 16 15 14 13 13 13 13 13 13 12 11 12 11 9 7 5 4 4 2 2 2 4 4 4 3 3 5 5 5 6 6 6 7 6 6 7 9 11 12 11 11 11
15 15 14 14 14 13 13 13 14 13 12 11 10 10 10 8 6 4 2 1 1 1 4 3 3 3 4 3 4 4 4 4 5 6 6 6 7 8 10 12 12 12 11
15 15 16 15 15 14 14 13 13 11 10 10 9 9 9 8 6 2 3 1 1 1 2 3 3 4 3 4 4 4 4 4 4 6 6 7 8 8 9 11 12 14 12
16 16 17 16 16 15 14 13 12 11 10 9 9 8 7 5 5 4 2 2 2 2 3 3 4 4 5 5 4 6 5 5 6 8 8 8 9 8 9 11 12 14 13
16 17 17 16 16 15 13 12 11 11 10 9 9 8 7 6 6 4 1 1 2 3 3 4 5 5 6 6 7 7 7 7 9 10 10 9 9 9 9 9 10 12 14
16 17 16 16 14 12 11 11 11 11 10 9 7 6 7 5 4 1 3 3 3 3 5 5 6 6 7 7 8 9 8 9 10 10 12 12 11 10 10 10 10 11 13
17 17 16 15 13 12 12 11 11 10 9 8 7 6 5 3 1 1 2 2 4 4 6 6 7 8 9 9 9 11 12 13 13 13 14 15 15 12 12 11 12 12 12
17 17 17 15 13 12 11 10 10 9 8 7 6 5 3 1 1 1 3 4 5 6 7 8 9 10 11 11 12 14 14 15 16 16 16 17 14 16 14 13 14 14 14
17 16 16 14 13 11 10 10 9 8 7 6 5 3 1 1 1 3 4 6 7 8 10 11 12 13 13 13 14 14 15 15 16 16 16 17 17 17 15 15 15 14 14
16 16 15 13 11 10 9 9 8 7 6 5 4 3 2 2 3 5 6 8 9 10 11 12 13 13 14 14 13 13 13 14 14 14 15 17 17 17 16 14 15 14 14
15 15 14 12 10 9 8 8 7 6 4 4 4 4 2 2 4 6 8 8 8 9 10 10 10 11 10 8 10 12 14 14 15 15 16 17 18 20 16 13 14 14 12
14 14 13 12 10 9 8 8 6 4 4 4 3 3 2 4 5 6 6 6 6 7 7 8 9 9 7 9 10 13 15 15 15 15 14 14 15 16 17 18 20 19 16
14 14 12 10 8 8 8 6 5 4 4 3 1 1 3 5 5 5 5 6 6 6 7 8 9 9 6 6 10 13 15 15 13 13 12 11 11 15 14 14 16 17 19
14 13 12 10 8 7 6 6 6 5 3 2 1 3 4 4 5 5 6 6 6 6 7 7 8 9 5 2 9 16 15 14 13 13 13 12 13 13 13 13 14 15 16
14 13 12 10 7 7 7 6 5 4 2 2 4 5 5 5 5 5 6 6 6 6 7 7 7 8 6 5 10 15 12 12 14 14 14 14 13 13 14 14 14 14 14
14 13 11 9 6 6 6 5 4 3 3 5 6 6 6 5 5 5 5 5 5 6 7 7 7 8 8 7 10 13 9 11 12 12 13 14 13 14 14 13 13 13 12
15 12 10 8 7 6 5 4 4 5 6 6 7 6 5 4 4 4 4 5 6 6 7 8 8 7 7 8 9 13 11 10 11 11 10 9 11 14 14 14 12 12 11
13 10 9 9 7 5 4 5 6 6 6 7 6 5 4 4 4 4 4 5 6 7 8 8 8 7 8 9 12 15 15 15 13 11 10 10 14 15 15 11 10 12 10
11 11 12 10 7 5 4 7 7 6 7 6 5 4 4 4 5 4 5 5 6 6 7 7 8 9 9 10 13 15 17 19 13 11 16 17 16 14 9 7 7 4 1
13 12 11 10 8 6 7 7 7 7 6 5 4 4 4 5 6 5 6 6 6 7 7 8 9 10 10 10 11 11 11 13 12 11 13 13 12 10 8 6 6 6 5
11 10 9 9 9 8 8 8 7 6 6 5 4 4 5 6 5 6 6 7 7 7 7 7 7 8 9 12 17 12 10 10 11 12 8 7 7 8 7 7 7 6 5
10 9 9 9 9 10 9 8 7 6 5 5 5 5 5 6 6 5 4 3 3 3 5 6 7 8 10 16 17 18 17 16 16 10 8 8 8 8 7 7 6 6 6
Wind_Direction
164 148 153 152 147 147 149 148 141 140 147 144 141 127 111 100 89 79 74 73 69 67 50 54 54 28 40 15 347 326 296 278 296 290 283 272 257 250 254 257 269 278 286
161 160 162 159 148 140 137 137 138 144 149 131 115 109 107 94 85 80 74 72 70 64 68 51 35 25 333 312 329 323 311 307 304 303 302 293 282 259 262 275 282 295 301
177 170 168 159 147 138 136 130 129 134 129 128 121 119 113 114 107 102 94 79 77 71 56 41 5 338 310 349 338 331 329 323 313 320 317 313 319 332 301 293 292 293 291
183 177 169 159 148 137 131 126 125 122 126 133 131 132 129 124 124 131 123 108 66 47 37 19 17 355 355 11 333 24 327 322 320 329 314 307 317 303 305 298 295 292 285
183 178 168 155 142 136 130 126 122 119 120 119 123 127 128 130 136 135 123 133 107 45 27 29 28 12 8 18 359 352 338 328 333 328 318 310 294 284 284 294 296 289 286
171 163 153 143 137 133 129 127 124 122 127 130 131 131 130 131 131 143 152 216 89 58 53 27 13 351 360 358 344 332 330 345 339 316 312 308 304 303 301 298 295 292 292
161 153 148 143 140 138 134 132 130 131 133 129 125 124 125 131 131 134 107 6 3 22 66 352 337 342 344 324 324 308 327 313 312 298 307 310 300 298 299 298 299 299 297
163 156 152 147 145 143 141 142 140 137 135 127 122 120 124 116 105 93 60 58 336 349 359 311 317 322 315 307 307 294 291 298 295 291 291 288 291 300 301 303 304 301 299
159 154 152 149 149 149 150 148 139 135 132 126 123 116 104 90 91 106 145 2 352 325 319 307 300 302 302 302 295 286 289 287 285 291 292 290 296 294 294 297 298 297 295
155 154 153 152 152 151 147 140 137 134 130 126 117 111 106 102 101 51 36 6 344 347 322 309 301 294 294 293 290 288 287 290 286 287 290 290 289 294 293 288 285 282 281
156 155 154 153 151 148 145 140 136 134 126 116 108 102 96 92 76 21 347 338 330 322 308 307 301 295 291 289 287 285 290 286 288 288 289 292 294 294 294 292 287 283 279
157 156 153 150 152 151 144 138 135 129 123 115 110 101 92 74 342 347 334 314 301 298 300 296 291 288 288 288 286 287 289 290 292 293 295 295 296 295 294 292 287 284 279
156 155 153 154 152 148 142 137 132 124 120 117 115 103 82 39 330 322 312 302 295 292 292 290 288 288 290 291 290 290 292 294 295 298 298 298 298 296 294 292 289 287 283
160 159 156 152 147 144 139 130 121 116 114 113 102 88 68 17 323 309 303 297 295 294 294 295 297 300 302 301 305 309 307 303 301 299 297 295 295 294 295 293 291 287 284
165 162 155 147 142 137 127 114 109 112 119 116 103 94 66 340 307 304 305 307 309 310 314 317 318 319 315 347 349 327 311 308 303 299 296 298 301 299 292 285 285 287 286
165 156 147 143 137 129 117 110 112 124 130 113 99 76 346 317 320 325 332 341 350 352 346 341 335 331 354 32 352 323 312 305 302 303 306 304 297 293 290 281 276 276 281
158 149 142 135 127 120 118 122 137 140 134 121 88 347 334 339 355 10 24 20 7 355 344 341 337 334 18 24 334 322 309 303 306 305 299 296 297 298 291 289 287 281 276
145 136 129 119 118 121 128 141 139 132 132 117 14 6 8 34 52 44 29 10 355 348 342 342 338 329 352 8 319 324 311 308 306 302 299 296 293 290 291 292 288 284 282
118 116 113 115 127 134 137 134 123 123 126 52 30 35 54 68 51 32 16 3 352 352 340 349 337 332 340 0 325 326 318 310 311 311 309 303 295 287 283 286 284 284 284
106 108 112 120 126 122 119 119 121 117 67 49 61 75 72 57 40 26 6 4 351 352 343 347 337 333 336 344 323 327 320 312 312 309 305 299 294 294 290 290 287 286 291
108 113 120 123 117 116 117 119 105 68 61 78 92 85 72 56 34 21 6 350 350 0 349 340 334 333 337 337 337 331 328 321 313 307 308 309 305 298 292 286 281 280 289
113 120 120 114 113 126 135 111 74 72 89 100 98 83 52 21 21 8 355 0 1 358 352 344 341 344 345 346 343 326 322 322 315 310 313 319 318 311 301 291 282 283 283
126 130 127 130 141 149 117 84 81 95 108 109 93 67 45 34 16 2 14 21 12 0 355 353 351 348 344 342 340 329 325 322 320 316 321 325 324 321 314 315 319 312 67
135 139 140 136 128 112 86 83 97 109 114 99 77 58 41 46 52 26 25 22 13 8 4 358 348 340 337 341 341 332 326 325 328 329 329 330 330 337 345 1 35 52 55
134 135 128 121 112 101 95 98 106 112 100 81 63 54 55 50 46 49 36 20 37 17 353 349 339 332 334 333 327 327 331 334 335 332 341 352 355 10 24 35 42 45 44
126 123 120 113 106 103 101 100 101 89 74 69 57 52 53 48 37 33 61 103 36 357 325 327 331 336 332 329 335 341 339 340 340 346 359 2 8 19 29 35 40 41 40